Weather in Butte

United States     46°00′18″N   112°32′20″W
temp.,
°C
wind,
m/s
gust,
m/s
humid.,
%
clouds,
%
prec.,
mm/h
press.,
hPa
HPBL,
m
16 may, sun
sun1600:00+7ese11645 0.0 101411
03:00+6nne11691 0.0 101410
06:00+5nnw11770 0.0 101410
09:00+12sse01500 0.0 1014581
12:00+15s22353 0.0 10111853
15:00+18sw22305 0.0 10102176
18:00+18ssw12307 0.0 10081975
21:00+12se33385 0.0 101025
17 may, mon
mon1700:00+9e21380 0.0 101011
03:00+8se22440 0.0 100911
06:00+6sse11490 0.0 100911
09:00+14s23350 0.0 1009369
12:00+19wsw34240 0.0 10062278
15:00+21wsw45203 0.0 10043012
18:00+21w452113 0.0 10023217
21:00+13nw345034 0.0 100553
18 may, tue
tue1800:00+11nw116181 0.6 100711
03:00+9wnw11690 0.0 100710
06:00+7w1180100 0.0 100710
09:00+15sw4841100 0.0 10061228
12:00+17wsw1013283 0.0 10042340
15:00+19wsw91225100 0.0 10023202
18:00+17w8102990 0.0 10032516
21:00+7nw586353 0.0 1009263
19 may, wed
wed1900:00+4wnw236862 0.0 1013142
03:00+2wnw227149 0.0 101353
06:00+1nw21801 0.0 101318
09:00+6w1161100 0.0 1010539
12:00+12sse2344100 0.0 10051375
15:00+12e1350100 0.3 10031352
18:00+4wnw3395100 3.1 1006370
21:00+3wnw4696100 2.1 1008470
20 may, thu
thu2000:00+2nw2497100 3.6 1008293
03:00+1nnw349790 2.5 1010212
06:00+1wnw1298100 2.8 1011170
09:00+1nnw1199100 0.9 1011122
12:00+2nnw0193100 1.4 1011375
15:00+2ene2291100 1.1 1011456
18:000n3494100 1.5 1012338
21:00−2n3595100 1.1 1015319